Weather Roundup
Issued by NWS Springfield, MO

Home | Current Version | Previous Version | Text Only | Print | Product List | Glossary On
Versions: 1 2 3 4 5 6 7 8 9 10 11 12 13 14 15 16 17 18 19 20 21 22 23 24 25 26 27 28 29 30 31 32 33 34 35 36 37 38 39 40 41 42 43 44 45 46 47 48 49 50
000
NZUS99 KSGF 270407
HRRSGF

HOURLY WEATHER
NATIONAL WEATHER SERVICE SPRINGFIELD MO
1000 PM CST MON JAN 26 2015

......SGF CWA......

CITY           SKY/WX    TMP DP  RH WIND       PRES   REMARKS
SPRINGFIELD    CLEAR     46  35  65 W8        29.99S
JOPLIN         CLEAR     47  34  60 MISG      30.02R
WEST PLAINS    CLEAR     46  34  62 W7        29.95S
ROLLA          CLEAR     42  34  73 W9        29.93R
OSAGE BEACH    CLEAR     46  34  61 NW5       29.97R
BRANSON        CLEAR     46  34  61 W5        30.00S

......SURROUNDING SGF CWA......

CITY           SKY/WX    TMP DP  RH WIND       PRES   REMARKS
CHANUTE        CLEAR     47  35  63 NW5       30.04R
PARSONS        CLEAR     46  35  65 N8        30.04R
COFFEYVILLE    CLEAR     44  34  67 NW6       30.03R
EMPORIA        CLEAR     47  32  56 CALM      30.03R
GROVE OK       CLEAR     43  34  70 CALM      30.03S
ROGERS AR      CLEAR     47  34  60 SW6       30.03R
SILOAM SPRINGS CLEAR     46  30  53 NW3       30.04S
HARRISON AR    CLEAR     49  34  56 NW8       30.00R
NEAR YELLVILLE CLEAR     46  30  53 SW3       29.98S

......KANSAS AND MISSOURI......

CITY           SKY/WX    TMP DP  RH WIND       PRES   REMARKS
KANSAS CTY INT CLEAR     45  32  60 NW8       30.01R
DOWNTOWN KC    CLEAR     43  32  65 CALM      30.01R
COLUMBIA       CLEAR     43  35  73 NW10      29.95R
SEDALIA        CLEAR     45  33  63 NW10      29.99R
ST JOSEPH      CLEAR     30  25  81 CALM      30.02R
ST LOUIS       CLOUDY    37  30  75 CALM      29.92S
SPIRIT OF STL  CLOUDY    33  31  92 CALM      29.91F
KIRKSVILLE     PTCLDY    42  35  76 NW9       29.94S
WICHITA        CLEAR     48  33  56 NW6       30.05S
TOPEKA         CLEAR     37  29  72 CALM      30.03S
OLATHE         CLEAR     47  31  53 NW6       30.01R

......TENNESSEE......

CITY           SKY/WX    TMP DP  RH WIND       PRES   REMARKS
MEMPHIS        CLEAR     42  32  67 CALM      29.95F
NASHVILLE      CLOUDY    34  31  88 E3        29.97F

......ARKANSAS.......

CITY           SKY/WX    TMP DP  RH WIND       PRES   REMARKS
FAYETTEVILLE   CLEAR     35  31  85 CALM      30.02F
FT SMITH       CLEAR     45  36  70 CALM      30.01F
LITTLE ROCK    CLEAR     49  33  54 W7        30.01R

......OKLAHOMA.......

CITY           SKY/WX    TMP DP  RH WIND       PRES   REMARKS
TULSA          CLEAR     48  36  63 CALM      30.02S
PONCA CITY     CLEAR     47  34  60 CALM      30.06R
MCALESTER      PTCLDY    44  35  70 CALM      30.05S
OKLAHOMA CITY  CLEAR     55  34  45 NW5       30.07S

......IOWA............

CITY           SKY/WX    TMP DP  RH WIND       PRES   REMARKS
DES MOINES     PTCLDY    42  34  73 N9        29.97R
QUAD CITIES    CLOUDY    32  30  92 CALM      29.87S

......ILLINOIS........

CITY           SKY/WX    TMP DP  RH WIND       PRES   REMARKS
QUINCY         CLOUDY    38  34  85 W6        29.90S WCI  33
CHICAGO        LGT SNOW  26  24  92 SE5       29.90S FOG     WCI  20



USA.gov is the U.S. government's official web portal to all federal, state and local government web resources and services.